Flag for Canada Weather past 2 weeks in Happy Valley-Goose Bay, Newfoundland and Labrador, Canada

Now
41 °F

Mostly cloudy.


Feels Like: 35 °F
Forecast: N/A
Wind: 10 mph from South

Location: Goose

Current Time: Sep 18, 2014 at 6:49:57 PM

Latest Report: Sep 18, 2014 at 6:00 PM


Visibility: 15 mi

Pressure: 29.87 "Hg

Humidity: 70%

Dew point: 32 °F

Location of Happy Valley-Goose BayLocation

Historic Weather in Happy Valley-Goose Bay — Graph

°F

Happy Valley-Goose Bay temperature yesterday

Maximum temperature yesterday: 52 °F (at 10:00 AM)
Minimum temperature yesterday: 37 °F (at 11:00 PM)
Average temperature yesterday: 47 °F

Past Weeks' High & Low Weather Summary

 TemperatureHumidityPressure
High77 °F (Sep 9, 4:00 PM)100% (Sep 14, 11:00 PM)30.34 "Hg (Sep 14, 11:00 PM)
Low32 °F (Sep 18, 6:00 AM)34% (Sep 8, 5:00 PM)29.15 "Hg (Sep 12, 8:00 AM)
Average51 °F70%29.85 "Hg
* Reported Sep 3 5:00 PM — Sep 18 5:00 PM, Happy Valley-Goose Bay, Weather by CustomWeather, © 2014

Note: Actual official high and low records may vary slightly from our data, if they occured in-between our weather recording intervals... More about our weather records

Advertising

Happy Valley-Goose Bay weather history for previous 24 hours

 ConditionsComfort  
Time TempWeatherWind HumidityBarometerVisibility
5:00 PM
Sep 18
43 °FMostly cloudy.9 mph61%29.88 "Hg15 mi
4:00 PM43 °FMostly cloudy.15 mph61%29.88 "Hg15 mi
3:00 PM45 °FMostly cloudy.14 mph49%29.88 "Hg15 mi
2:00 PM46 °FMostly cloudy.7 mph46%29.88 "Hg15 mi
1:00 PM46 °FPartly sunny.No wind53%29.89 "Hg15 mi
12:00 PM45 °FBroken clouds.2 mph53%29.90 "Hg15 mi
11:00 AM41 °FPartly sunny.5 mph66%29.92 "Hg15 mi
10:00 AM37 °FPartly sunny.5 mph70%29.93 "Hg15 mi
9:00 AM36 °FPartly sunny.6 mph75%29.94 "Hg15 mi
8:00 AM34 °FPassing clouds.5 mph81%29.94 "Hg15 mi
7:00 AM32 °FPassing clouds.6 mph80%29.93 "Hg15 mi
6:00 AM32 °FPassing clouds.2 mph75%29.91 "Hg15 mi
5:00 AM34 °FClear.7 mph70%29.90 "Hg15 mi
4:00 AM36 °FClear.8 mph65%29.89 "Hg15 mi
3:00 AM36 °FPassing clouds.13 mph65%29.89 "Hg15 mi
2:00 AM36 °FPassing clouds.12 mph65%29.89 "Hg15 mi
1:00 AM36 °FPassing clouds.12 mph65%29.87 "Hg15 mi
12:00 AM37 °FClear.7 mph60%29.86 "Hg15 mi
11:00 PM
Sep 17
37 °FClear.13 mph65%29.85 "Hg15 mi
10:00 PM39 °FPassing clouds.9 mph61%29.83 "Hg15 mi
9:00 PM39 °FPassing clouds.7 mph65%29.82 "Hg15 mi
8:00 PM41 °FScattered clouds.9 mph70%29.80 "Hg15 mi
7:00 PM43 °FScattered clouds.15 mph66%29.77 "Hg15 mi
6:00 PM45 °FPartly sunny.20 mph66%29.73 "Hg15 mi
Weather by CustomWeather, © 2014

See weather overviewHow to use our weather pages